sat.trackr.live / text

‹ back to catalog

STARLINK-37893

NORAD 69486 · 2026-131J

PAYLOAD ACTIVE UNKNOWN

§ Identity

Operator
Country
US
Launch date
2026-06-11
Launch site
AFWTR
Launch vehicle
Mass (kg)
RCS (m²)

Purposes: comms

External: N2YO · Heavens-Above · Gunter

§ Orbital elements

Epoch: 2026-09-19T23:00:15.549984Z

Period
93.91 min
Inclination
97.2839°
Eccentricity
0.0001859
Mean motion
15.33450361 rev/d
Perigee alt
464.3 km
Apogee alt
466.8 km
Semi-major
6,843.7 km
B*
3.5700e-4
RAAN
283.8144°
Arg perigee
110.7631°
Mean anomaly
249.3811°
Rev number
1,681

§ Raw data

STARLINK-378931 69486U 26131J   26262.95851331  .00011470  00000+0  35700-3 0  99992 69486  97.2839 283.8144 0001859 110.7631 249.3811 15.33450361 16810

JSON: /api/v1/satellites/69486 · /tle

For live sub-satellite position, see the globe view (requires WebGL).

§ Visibility from observer

Set your observer location to see the next 7 days of passes ≥ 10°. The values pass through the URL so the page stays shareable.

No JS? Fill the form by hand. The geolocation button needs JavaScript.